CW0311 Weather Reports


Display with metric or nautical units.
time (UTC)temp
F
wind
direction
speed
MPH
gust
MPH
rain 1hr
in
rain 24hr
in
rain mn
in
humidity
%
barometer
mb
20260507083019 46 301 1.0 7.0 0.00 0.18 0.02 87 1011.3
20260507081520 46 297 2.0 7.0 0.00 0.18 0.02 87 1011.1
20260507080015 46 269 1.0 7.0 0.02 0.18 0.02 87 1011.1
20260507074514 46 307 2.0 9.0 0.02 0.18 0.02 87 1011.0
20260507073012 47 297 1.0 7.0 0.02 0.18 0.02 87 1011.0
20260507071511 47 318 3.0 7.0 0.01 0.17 0.01 87 1010.8
20260507070011 47 308 2.0 7.0 0.00 0.16 0.00 87 1010.8
20260507064507 47 301 1.0 5.0 0.00 0.16 0.00 87 1010.3
20260507063020 48 340 1.0 5.0 0.00 0.16 0.00 87 1010.2
20260507061505 48 291 1.0 9.0 0.00 0.16 0.00 87 1010.4
20260507060003 48 194 2.0 9.0 0.00 0.16 0.00 87 1010.7
20260507054601 48 275 2.0 7.0 0.00 0.16 0.00 87 1010.2
20260507053058 49 355 3.0 10.0 0.00 0.16 0.00 87 1010.6
20260507051600 49 288 1.0 8.0 0.00 0.16 0.00 87 1010.9
20260507050051 51 307 3.0 7.0 0.00 0.16 0.00 86 1010.8
20260507044552 51 279 2.0 7.0 0.00 0.16 0.00 86 1010.7
20260507043049 51 300 3.0 10.0 0.00 0.16 0.00 86 1010.6
20260507041545 52 299 3.0 7.0 0.00 0.16 0.00 86 1010.7
20260507040043 52 307 3.0 10.0 0.00 0.16 0.00 86 1010.5
20260507034542 53 323 6.0 10.0 0.00 0.16 0.16 86 1010.8
20260507033039 54 296 5.0 13.0 0.00 0.16 0.16 86 1010.7
20260507031536 55 285 5.0 12.0 0.00 0.16 0.16 86 1010.4
20260507030034 56 284 7.0 12.0 0.00 0.16 0.16 86 1010.2
20260507024535 56 293 5.0 12.0 0.00 0.16 0.16 86 1010.0
20260507023032 57 330 7.0 17.0 0.00 0.16 0.16 87 1010.0
20260507021532 57 293 5.0 13.0 0.00 0.16 0.16 87 1009.5
20260507020040 57 285 6.0 12.0 0.00 0.16 0.16 87 1009.7
20260507014530 57 281 4.0 14.0 0.01 0.16 0.16 87 1009.6
20260507013045 57 283 6.0 12.0 0.01 0.16 0.16 87 1009.7
20260507011529 57 295 5.0 11.0 0.01 0.16 0.16 87 1009.4
20260507010035 57 293 4.0 11.0 0.01 0.16 0.16 87 1009.7
20260507004527 57 258 5.0 10.0 0.00 0.15 0.15 87 1009.8
20260507003027 56 287 4.0 13.0 0.00 0.15 0.15 87 1009.7
20260507001530 56 284 4.0 11.0 0.00 0.15 0.15 87 1009.6
20260507000025 56 299 3.0 9.0 0.00 0.15 0.15 87 1009.6
20260506234531 56 292 3.0 8.0 0.01 0.15 0.15 87 1009.4
20260506233038 56 282 3.0 11.0 0.02 0.15 0.15 87 1009.3
20260506231528 56 280 3.0 7.0 0.04 0.15 0.15 87 1009.3
20260506230026 56 268 3.0 7.0 0.04 0.15 0.15 87 1009.2
20260506224523 56 275 3.0 6.0 0.03 0.14 0.14 87 1009.2
20260506223022 56 294 2.0 9.0 0.02 0.13 0.13 87 1009.3
20260506221521 56 301 3.0 13.0 0.01 0.11 0.11 87 1009.6
20260506220027 56 272 2.0 12.0 0.01 0.11 0.11 87 1009.4
20260506214519 57 296 1.0 6.0 0.01 0.11 0.11 87 1009.5
20260506213018 57 257 2.0 10.0 0.01 0.11 0.11 87 1009.6
20260506211524 57 243 3.0 9.0 0.00 0.10 0.10 87 1009.8
20260506210025 57 264 3.0 10.0 0.00 0.10 0.10 87 1009.9
20260506204515 57 299 3.0 9.0 0.01 0.10 0.10 87 1010.0
20260506203014 57 293 3.0 10.0 0.01 0.10 0.10 87 1010.1
20260506201514 57 298 5.0 14.0 0.02 0.10 0.10 87 1010.2
20260506200031 57 323 2.0 13.0 0.03 0.10 0.10 87 1010.1
20260506194512 57 267 3.0 8.0 0.03 0.09 0.09 87 1010.3
20260506193011 58 293 2.0 9.0 0.05 0.09 0.09 87 1010.4
20260506191510 58 245 1.0 7.0 0.06 0.08 0.08 87 1010.4
20260506190010 58 233 3.0 10.0 0.06 0.07 0.07 87 1010.6
20260506184509 59 287 1.0 6.0 0.06 0.06 0.06 87 1010.5
20260506183006 59 256 1.0 8.0 0.04 0.04 0.04 87 1010.8
20260506181512 60 268 4.0 9.0 0.02 0.02 0.02 86 1010.9
20260506180013 61 235 2.0 10.0 0.01 0.01 0.01 84 1011.1
20260506174504 63 285 6.0 15.0 0.00 0.00 0.00 81 1011.2
20260506173004 66 274 5.0 16.0 0.00 0.00 0.00 77 1011.1
20260506171504 68 258 2.0 15.0 0.00 0.00 0.00 74 1011.0
20260506170002 68 265 3.0 13.0 0.00 0.00 0.00 73 1010.8
20260506164502 69 258 4.0 9.0 0.00 0.00 0.00 72 1010.9
20260506163106 68 268 5.0 11.0 0.00 0.00 0.00 73 1011.1
20260506161558 68 268 4.0 16.0 0.00 0.00 0.00 72 1011.4
20260506160108 68 260 6.0 16.0 0.00 0.00 0.00 72 1011.5
20260506154555 68 281 5.0 10.0 0.00 0.00 0.00 74 1011.8
20260506153052 67 264 5.0 15.0 0.00 0.00 0.00 75 1012.0
20260506151551 67 286 3.0 19.0 0.00 0.00 0.00 75 1012.2
20260506150050 67 258 6.0 17.0 0.00 0.00 0.00 74 1012.4
20260506144548 67 283 2.0 16.0 0.00 0.00 0.00 76 1012.5
20260506143047 67 249 4.0 12.0 0.00 0.00 0.00 78 1012.6
20260506141604 66 262 4.0 13.0 0.00 0.00 0.00 77 1012.5
20260506140043 65 257 2.0 7.0 0.00 0.00 0.00 79 1012.4
20260506134542 65 283 5.0 10.0 0.00 0.00 0.00 79 1012.4
20260506133040 65 240 3.0 10.0 0.00 0.00 0.00 81 1012.5
20260506131539 64 276 4.0 15.0 0.00 0.00 0.00 82 1012.6
20260506130034 62 242 1.0 8.0 0.00 0.00 0.00 83 1012.9
20260506124537 61 252 4.0 11.0 0.00 0.00 0.00 83 1013.0
20260506123039 60 277 3.0 15.0 0.00 0.00 0.00 84 1012.8
20260506121527 59 252 1.0 7.0 0.00 0.00 0.00 85 1012.8
20260506120035 59 281 2.0 6.0 0.00 0.00 0.00 86 1013.2
20260506114526 57 235 0.0 7.0 0.00 0.00 0.00 86 1013.0
20260506113021 56 277 2.0 6.0 0.00 0.00 0.00 87 1013.4
20260506111520 55 278 0.0 6.0 0.00 0.00 0.00 87 1013.5
20260506110024 55 312 1.0 9.0 0.00 0.00 0.00 87 1013.6
20260506104519 55 271 2.0 6.0 0.00 0.00 0.00 87 1013.4
20260506103026 54 254 2.0 7.0 0.00 0.00 0.00 87 1013.4
20260506101520 54 289 2.0 8.0 0.00 0.00 0.00 87 1013.3
20260506100016 54 265 1.0 5.0 0.00 0.00 0.00 87 1013.4
20260506094527 54 297 2.0 7.0 0.00 0.00 0.00 87 1013.3
20260506093023 54 283 1.0 7.0 0.00 0.00 0.00 87 1013.3
20260506091512 55 293 3.0 7.0 0.00 0.00 0.00 86 1013.3
20260506090013 55 285 2.0 6.0 0.00 0.00 0.00 86 1013.4
20260506084510 55 275 1.0 7.0 0.00 0.00 0.00 86 1013.4